Mmabatho, South Africa

4:23 AM SAST on August 29, 2016 (GMT +0200)
Mafikeng International

Weather History for FAMM - October, 2012

Change the Weather History Date:

Friday, October 5, 2012

  Actual Average Record
Temperature  
Mean Temperature 79 °F -  
Max Temperature 95 °F - - ()
Min Temperature 63 °F - - ()
Cooling Degree Days 14    
Growing Degree Days 29 (Base 50)    
Moisture  
Dew Point 14 °F    
Average Humidity 9    
Maximum Humidity 20    
Minimum Humidity 4    
Precipitation  
Precipitation 0.00 in - - ()
Sea Level Pressure  
Sea Level Pressure 30.04 in    
Wind  
Wind Speed 7 mph ()    
Max Wind Speed 12 mph    
Max Gust Speed -    
Visibility 19.0 miles    
Events      
T = Trace of Precipitation, MM = Missing Value Source: Averaged Metar Reports

Daily Weather History Graph

Daily Weather History Graph

Search for Another Location

Airport or City:

Trip Planner

Search our weather history database for the weather conditions in past years. The results will help you decide how hot, cold, wet, or windy it might be!

Date:

Astronomy

Oct. 05, 2012 Rise Set
Actual Time 5:53 AM SAST 6:19 PM SAST
Civil Twilight 5:29 AM SAST 6:42 PM SAST
Nautical Twilight 5:02 AM SAST 7:09 PM SAST
Astronomical Twilight 4:35 AM SAST 7:37 PM SAST
Moon 11:02 PM SAST (10/5) 9:10 AM SAST (10/5)
Length of Visible Light 13h 12m
Length of Day
12h 26m
Waning Gibbous, 76% of the Moon is Illuminated
Oct 5
Waning Gibbous
Oct 8
Last Quarter
Oct 15
New
Oct 22
First Quarter
Oct 29
Full

Hourly Weather History & Observations

Time (SAST) Temp. Dew Point Humidity Pressure Visibility Wind Dir Wind Speed Gust Speed Precip Events Conditions
12:00 AM 73.4 °F 17.6 °F 12% 30.06 in - SE 11.5 mph - N/A   Unknown
1:00 AM 71.6 °F 17.6 °F 13% 30.06 in - ESE 10.4 mph - N/A   Unknown
2:00 AM 68 °F 17 °F 7%  in - East 10.4 mph - -  
2:00 AM 68.0 °F 17.6 °F 15% 30.04 in - East 9.2 mph - N/A   Unknown
3:00 AM 66.2 °F 17.6 °F 15% 30.04 in - ESE 9.2 mph - N/A   Unknown
4:00 AM 66.2 °F 17.6 °F 15% 30.04 in - ESE 9.2 mph - N/A   Unknown
5:00 AM 67 °F 18 °F 7%  in 19 mi ESE 9.2 mph - -   Scattered Clouds
5:00 AM 66.2 °F 19.4 °F 17% 30.04 in - ESE 8.1 mph - N/A   Clear
6:00 AM 62.6 °F 21.2 °F 20% 30.06 in - East 6.9 mph - N/A   Clear
7:00 AM 64.4 °F 21.2 °F 19% 30.06 in - SSE 5.8 mph - N/A   Clear
7:26 AM 71.6 °F 19.4 °F 14% 30.09 in - East 6.9 mph - N/A   Clear
8:00 AM 75 °F 17 °F 5%  in 19 mi East 11.5 mph - -   Partly Cloudy
8:00 AM 73.4 °F 17.6 °F 12% 30.09 in - East 10.4 mph - N/A   Clear
8:40 AM 80.6 °F 15.8 °F 9% 30.09 in - East 10.4 mph - N/A   Clear
9:00 AM 84.2 °F 12.2 °F 7% 30.09 in - East 10.4 mph - N/A   Clear
10:00 AM 87.8 °F 10.4 °F 6% 30.06 in - ENE 9.2 mph - N/A   Clear
11:00 AM 90 °F 11 °F 4%  in 19 mi North 4.6 mph - -   Scattered Clouds
11:00 AM 89.6 °F 12.2 °F 6% 30.06 in - North 3.5 mph - N/A   Clear
1:00 PM 93.2 °F 3.2 °F 4% 30.01 in - NNW 6.9 mph - N/A   Clear
2:00 PM - - N/A% 30.01 in - WNW 5.8 mph - N/A   Clear
3:00 PM 93.2 °F 3.2 °F 4% 29.98 in - WNW 4.6 mph - N/A   Clear
4:00 PM 95.0 °F 3.2 °F 4% 29.98 in - WNW 9.2 mph - N/A   Clear
5:00 PM 94 °F 2 °F 4%  in 19 mi West 6.9 mph - -   Partly Cloudy
5:00 PM 93.2 °F 3.2 °F 4% 29.98 in - West 5.8 mph - N/A   Clear
6:00 PM 89.6 °F 6.8 °F 4% 29.98 in - WSW 3.5 mph - N/A   Clear
7:00 PM 87.8 °F 14.0 °F 6% 30.01 in - SW 4.6 mph - N/A   Clear
8:00 PM 82 °F 15 °F 4%  in 19 mi South 5.8 mph - -   Partly Cloudy
8:00 PM 80.6 °F 15.8 °F 9% 30.01 in - South 4.6 mph - N/A   Clear
9:00 PM 80.6 °F 19.4 °F 10% 30.04 in - South 3.5 mph - N/A   Unknown
10:00 PM 78.8 °F 21.2 °F 12% 30.04 in - East 3.5 mph - N/A   Unknown
11:00 PM 77 °F 17 °F 4%  in - North 3.5 mph - -  
11:00 PM 77.0 °F 17.6 °F 11% 30.06 in - North 3.5 mph - N/A   Unknown